Weather History for Cambridge, United Kingdom

Change the Weather History Date:

Tuesday, April 9, 2013

  Actual Average Record
Temperature  
Mean Temperature 42 °F -  
Max Temperature 51 °F 56 °F 64 °F (1997)
Min Temperature 33 °F 44 °F 30 °F (2003)
Degree Days  
Heating Degree Days 23    
Moisture  
Dew Point 34 °F    
Average Humidity 63    
Maximum Humidity 100    
Minimum Humidity 50    
Precipitation  
Precipitation 0.00 in - - ()
Sea Level Pressure  
Sea Level Pressure 29.45 in    
Wind  
Wind Speed 7 mph ()    
Max Wind Speed 12 mph    
Max Gust Speed -    
Visibility 4.0 miles    
Events      
Averages and records for this station are not official NWS values.
T = Trace of Precipitation, MM = Missing Value Source: Averaged Metar Reports

Daily Weather History Graph

Daily Weather History Graph

Search for Another Location

Airport:

Trip Planner

Search our weather history database for the weather conditions in past years. The results will help you decide how hot, cold, wet, or windy it might be!

Date:

Astronomy

Apr. 09, 2013 Rise Set
Actual Time 6:15 AM BST 7:47 PM BST
Civil Twilight 5:40 AM BST 8:22 PM BST
Nautical Twilight 4:56 AM BST 9:06 PM BST
Astronomical Twilight 4:09 AM BST 9:54 PM BST
Moon 5:35 AM BST (4/9) 7:06 PM BST (4/9)
Length of Visible Light 14h 42m
Length of Day
13h 31m
Waning Crescent, 1% of the Moon is Illuminated
Apr 9
Waning Crescent
Apr 10
New
Apr 18
First Quarter
Apr 25
Full
May 2
Last Quarter

Hourly Weather History & Observations

Time (BST) Temp. Windchill Dew Point Humidity Pressure Visibility Wind Dir Wind Speed Gust Speed Precip Events Conditions
6:20 AM 33.8 °F 28.6 °F 33.8 °F 100% 29.44 in 2.8 mi NNE 5.8 mph - N/A   Mist
6:50 AM 35.6 °F 30.7 °F 33.8 °F 93% 29.44 in 2.8 mi NNE 5.8 mph - N/A   Mist
7:20 AM 35.6 °F 31.7 °F 33.8 °F 93% 29.44 in 2.8 mi NNE 4.6 mph - N/A   Mist
7:50 AM 37.4 °F - 35.6 °F 93% 29.44 in 3.1 mi Variable 1.2 mph - N/A   Mist
8:20 AM 39.2 °F 35.9 °F 35.6 °F 87% 29.44 in 3.1 mi ENE 4.6 mph - N/A   Mist
8:50 AM 41.0 °F 38.0 °F 35.6 °F 81% 29.44 in 3.7 mi NE 4.6 mph - N/A   Unknown
9:20 AM 46.4 °F 43.5 °F 33.8 °F 62% 29.44 in 4.3 mi ENE 5.8 mph - N/A   Unknown
9:50 AM 46.4 °F 41.9 °F 33.8 °F 62% 29.44 in 4.3 mi East 9.2 mph - N/A   Unknown
10:20 AM 48.2 °F - 32.0 °F 54% 29.42 in 4.3 mi ENE 11.5 mph - N/A   Unknown
11:20 AM 48.2 °F - 32.0 °F 54% 29.42 in 4.3 mi East 11.5 mph - N/A   Mostly Cloudy
11:50 AM 50.0 °F - 32.0 °F 50% 29.42 in 4.3 mi East 10.4 mph - N/A   Mostly Cloudy
12:20 PM 50.0 °F - 33.8 °F 54% 29.42 in 4.3 mi East 11.5 mph - N/A   Mostly Cloudy
12:50 PM 50.0 °F - 33.8 °F 54% 29.42 in 4.3 mi ENE 9.2 mph - N/A   Scattered Clouds
1:20 PM 51.8 °F - 33.8 °F 50% 29.42 in 5.0 mi ENE 10.4 mph - N/A   Mostly Cloudy
1:50 PM 51.8 °F - 33.8 °F 50% 29.44 in 5.0 mi East 9.2 mph - N/A   Mostly Cloudy
2:20 PM 51.8 °F - 33.8 °F 50% 29.44 in 5.0 mi ENE 9.2 mph - N/A   Mostly Cloudy
2:50 PM 51.8 °F - 33.8 °F 50% 29.44 in 4.3 mi East 10.4 mph - N/A   Scattered Clouds
3:20 PM 51.8 °F - 33.8 °F 50% 29.44 in 4.3 mi ENE 10.4 mph - N/A   Scattered Clouds
3:50 PM 51.8 °F - 33.8 °F 50% 29.44 in 4.3 mi ENE 9.2 mph - N/A   Scattered Clouds
4:20 PM 51.8 °F - 33.8 °F 50% 29.44 in 4.3 mi ENE 10.4 mph - N/A   Scattered Clouds
4:50 PM 51.8 °F - 33.8 °F 50% 29.44 in 4.3 mi ENE 9.2 mph - N/A   Scattered Clouds
5:20 PM 51.8 °F - 33.8 °F 50% 29.44 in 4.3 mi ENE 8.1 mph - N/A   Scattered Clouds
5:50 PM 51.8 °F - 33.8 °F 50% 29.47 in 4.3 mi ENE 8.1 mph - N/A   Scattered Clouds
6:20 PM 51.8 °F - 33.8 °F 50% 29.47 in 4.3 mi ENE 9.2 mph - N/A   Scattered Clouds
6:50 PM 46.4 °F 41.9 °F 35.6 °F 66% 29.47 in 3.7 mi NE 9.2 mph - N/A   Scattered Clouds
7:20 PM 44.6 °F 40.7 °F 35.6 °F 71% 29.50 in 3.7 mi ENE 6.9 mph - N/A   Scattered Clouds
7:50 PM 44.6 °F 40.7 °F 35.6 °F 71% 29.50 in 3.7 mi ENE 6.9 mph - N/A   Partly Cloudy
8:20 PM 44.6 °F 41.4 °F 35.6 °F 71% 29.50 in 3.7 mi NE 5.8 mph - N/A   Partly Cloudy